Time,TemperatureF,DewpointF,PressureIn,WindDirection,WindDirectionDegrees,WindSpeedMPH,WindSpeedGustMPH,Humidity,HourlyPrecipIn,Conditions,Clouds,dailyrainin,SoftwareType,DateUTC
2013-07-05 00:09:00,50.5,47.0,30.03,ESE,109,0.0,2.0,88,0.00,,,0.00,weatherlink.com 1.10,2013-07-05 09:09:00,
2013-07-05 00:24:00,50.5,47.0,30.04,East,100,1.0,3.0,88,0.00,,,0.00,weatherlink.com 1.10,2013-07-05 09:24:00,
2013-07-05 00:39:00,50.6,47.0,30.04,ESE,103,0.0,5.0,87,0.00,,,0.00,weatherlink.com 1.10,2013-07-05 09:39:00,
2013-07-05 01:09:00,50.4,47.0,30.03,SE,132,3.0,8.0,88,0.00,,,0.00,weatherlink.com 1.10,2013-07-05 10:09:00,
2013-07-05 01:24:00,50.6,47.0,30.04,East,88,1.0,10.0,88,0.00,,,0.00,weatherlink.com 1.10,2013-07-05 10:24:00,
2013-07-05 01:54:00,50.7,47.0,30.04,SE,134,5.0,6.0,87,0.00,,,0.00,weatherlink.com 1.10,2013-07-05 10:54:00,
2013-07-05 02:09:00,50.8,47.0,30.04,NE,39,6.0,7.0,87,0.00,,,0.00,weatherlink.com 1.10,2013-07-05 11:09:00,
2013-07-05 02:38:00,48.8,46.0,30.04,West,269,4.0,5.0,90,0.00,,,0.00,weatherlink.com 1.10,2013-07-05 11:38:00,
2013-07-05 02:53:00,48.8,47.0,30.04,WNW,298,0.0,6.0,92,0.00,,,0.00,weatherlink.com 1.10,2013-07-05 11:53:00,
2013-07-05 03:08:00,49.3,47.0,30.04,WNW,299,2.0,5.0,91,0.00,,,0.00,weatherlink.com 1.10,2013-07-05 12:08:00,
2013-07-05 03:23:00,49.5,47.0,30.04,NNW,345,2.0,6.0,91,0.00,,,0.00,weatherlink.com 1.10,2013-07-05 12:23:00,
2013-07-05 03:38:00,49.6,47.0,30.03,NNW,337,2.0,5.0,91,0.00,,,0.00,weatherlink.com 1.10,2013-07-05 12:38:00,
2013-07-05 03:53:00,49.2,47.0,30.03,WNW,303,1.0,5.0,91,0.00,,,0.00,weatherlink.com 1.10,2013-07-05 12:53:00,
2013-07-05 04:08:00,48.8,47.0,30.03,WNW,290,2.0,5.0,92,0.00,,,0.00,weatherlink.com 1.10,2013-07-05 13:08:00,
2013-07-05 04:23:00,48.7,47.0,30.03,NW,308,2.0,5.0,92,0.00,,,0.00,weatherlink.com 1.10,2013-07-05 13:23:00,
2013-07-05 04:38:00,48.6,47.0,30.03,NW,322,1.0,5.0,93,0.00,,,0.00,weatherlink.com 1.10,2013-07-05 13:38:00,
2013-07-05 04:53:00,48.4,47.0,30.03,WNW,290,1.0,5.0,93,0.00,,,0.00,weatherlink.com 1.10,2013-07-05 13:53:00,
2013-07-05 05:08:00,48.2,47.0,30.03,NW,310,2.0,6.0,94,0.00,,,0.00,weatherlink.com 1.10,2013-07-05 14:08:00,
2013-07-05 05:23:00,48.1,47.0,30.03,NW,310,1.0,5.0,94,0.00,,,0.00,weatherlink.com 1.10,2013-07-05 14:23:00,
2013-07-05 05:53:00,48.1,47.0,30.02,NW,310,0.0,2.0,94,0.00,,,0.00,weatherlink.com 1.10,2013-07-05 14:53:00,
2013-07-05 06:09:00,48.2,47.0,30.02,NW,310,0.0,0.0,94,0.00,,,0.00,weatherlink.com 1.10,2013-07-05 15:09:00,
2013-07-05 06:24:00,48.4,47.0,30.02,NW,310,1.0,1.0,94,0.00,,,0.00,weatherlink.com 1.10,2013-07-05 15:24:00,
2013-07-05 06:39:00,48.5,47.0,30.02,NW,310,1.0,2.0,94,0.00,,,0.00,weatherlink.com 1.10,2013-07-05 15:39:00,
2013-07-05 06:54:00,48.5,47.0,30.02,NW,310,1.0,4.0,94,0.00,,,0.00,weatherlink.com 1.10,2013-07-05 15:54:00,
2013-07-05 07:09:00,48.6,47.0,30.02,WNW,302,1.0,5.0,94,0.00,,,0.00,weatherlink.com 1.10,2013-07-05 16:09:00,
2013-07-05 07:24:00,49.5,48.0,30.02,NNE,19,2.0,3.0,94,0.00,,,0.00,weatherlink.com 1.10,2013-07-05 16:24:00,
2013-07-05 07:39:00,50.6,49.0,30.02,NE,48,2.0,5.0,93,0.00,,,0.00,weatherlink.com 1.10,2013-07-05 16:39:00,
2013-07-05 07:54:00,51.5,48.0,30.02,NNE,21,6.0,7.0,89,0.00,,,0.00,weatherlink.com 1.10,2013-07-05 16:54:00,
2013-07-05 08:09:00,52.3,48.0,30.02,ENE,58,6.0,8.0,86,0.00,,,0.00,weatherlink.com 1.10,2013-07-05 17:09:00,
2013-07-05 08:24:00,52.8,48.0,30.02,NE,45,5.0,7.0,85,0.00,,,0.00,weatherlink.com 1.10,2013-07-05 17:24:00,
2013-07-05 08:39:00,53.2,49.0,30.02,NE,42,0.0,7.0,85,0.00,,,0.00,weatherlink.com 1.10,2013-07-05 17:39:00,
2013-07-05 08:54:00,53.6,49.0,30.02,East,94,2.0,7.0,84,0.00,,,0.00,weatherlink.com 1.10,2013-07-05 17:54:00,
2013-07-05 09:09:00,52.6,48.0,30.02,West,262,4.0,6.0,83,0.00,,,0.00,weatherlink.com 1.10,2013-07-05 18:09:00,
2013-07-05 09:24:00,52.2,48.0,30.02,SSE,153,4.0,6.0,85,0.00,,,0.00,weatherlink.com 1.10,2013-07-05 18:24:00,
2013-07-05 09:39:00,52.0,47.0,30.02,WNW,286,6.0,7.0,84,0.00,,,0.00,weatherlink.com 1.10,2013-07-05 18:39:00,
2013-07-05 09:54:00,51.4,47.0,30.02,WNW,283,2.0,6.0,85,0.00,,,0.00,weatherlink.com 1.10,2013-07-05 18:54:00,
2013-07-05 10:09:00,50.9,47.0,30.02,West,281,5.0,7.0,87,0.00,,,0.00,weatherlink.com 1.10,2013-07-05 19:09:00,
2013-07-05 10:24:00,51.2,47.0,30.02,West,280,2.0,7.0,86,0.00,,,0.00,weatherlink.com 1.10,2013-07-05 19:24:00,
2013-07-05 10:39:00,50.5,47.0,30.01,West,277,5.0,7.0,86,0.00,,,0.00,weatherlink.com 1.10,2013-07-05 19:39:00,
2013-07-05 10:54:00,50.6,47.0,30.01,NW,312,8.0,8.0,87,0.00,,,0.00,weatherlink.com 1.10,2013-07-05 19:54:00,
2013-07-05 11:09:00,50.3,47.0,30.01,NW,315,4.0,9.0,87,0.00,,,0.00,weatherlink.com 1.10,2013-07-05 20:09:00,
2013-07-05 11:24:00,49.9,47.0,30.01,West,281,6.0,7.0,88,0.00,,,0.00,weatherlink.com 1.10,2013-07-05 20:24:00,
2013-07-05 11:39:00,49.8,47.0,30.01,NNW,329,2.0,8.0,89,0.00,,,0.00,weatherlink.com 1.10,2013-07-05 20:39:00,
2013-07-05 11:54:00,49.2,47.0,30.01,NW,317,4.0,8.0,90,0.00,,,0.00,weatherlink.com 1.10,2013-07-05 20:54:00,
2013-07-05 12:09:00,49.4,47.0,30.01,North,9,4.0,7.0,91,0.00,,,0.00,weatherlink.com 1.10,2013-07-05 21:09:00,
2013-07-05 12:24:00,50.0,48.0,30.01,NNW,332,5.0,5.0,92,0.00,,,0.00,weatherlink.com 1.10,2013-07-05 21:24:00,
2013-07-05 12:39:00,49.1,47.0,30.02,NW,309,5.0,7.0,92,0.00,,,0.00,weatherlink.com 1.10,2013-07-05 21:39:00,
2013-07-05 12:54:00,49.3,48.0,30.02,NW,310,5.0,7.0,94,0.00,,,0.00,weatherlink.com 1.10,2013-07-05 21:54:00,
2013-07-05 13:09:00,48.6,47.0,30.01,NW,313,5.0,6.0,94,0.00,,,0.00,weatherlink.com 1.10,2013-07-05 22:09:00,
2013-07-05 13:24:00,49.9,49.0,30.01,NE,35,4.0,8.0,95,0.00,,,0.00,weatherlink.com 1.10,2013-07-05 22:24:00,
2013-07-05 13:40:00,50.9,49.0,30.01,NNE,20,6.0,9.0,94,0.00,,,0.00,weatherlink.com 1.10,2013-07-05 22:40:00,
2013-07-05 13:55:00,51.1,49.0,30.00,NNW,341,4.0,8.0,93,0.00,,,0.00,weatherlink.com 1.10,2013-07-05 22:55:00,
2013-07-05 14:10:00,51.6,50.0,30.00,ENE,73,1.0,6.0,93,0.00,,,0.00,weatherlink.com 1.10,2013-07-05 23:10:00,
2013-07-05 14:25:00,51.7,50.0,30.00,NE,42,2.0,5.0,93,0.00,,,0.00,weatherlink.com 1.10,2013-07-05 23:25:00,
2013-07-05 14:40:00,51.8,50.0,29.99,NNW,342,3.0,5.0,93,0.00,,,0.00,weatherlink.com 1.10,2013-07-05 23:40:00,
2013-07-05 15:10:00,52.1,50.0,29.99,ENE,67,0.0,5.0,92,0.00,,,0.00,weatherlink.com 1.10,2013-07-06 00:10:00,
2013-07-05 15:25:00,52.2,50.0,29.99,ESE,103,2.0,5.0,92,0.00,,,0.00,weatherlink.com 1.10,2013-07-06 00:25:00,
2013-07-05 15:40:00,51.6,49.0,30.00,NW,309,4.0,4.0,91,0.00,,,0.00,weatherlink.com 1.10,2013-07-06 00:40:00,
2013-07-05 15:55:00,49.2,47.0,30.00,NW,323,6.0,7.0,93,0.00,,,0.00,weatherlink.com 1.10,2013-07-06 00:55:00,
2013-07-05 16:10:00,49.5,48.0,29.99,WSW,253,2.0,6.0,94,0.00,,,0.00,weatherlink.com 1.10,2013-07-06 01:10:00,
2013-07-05 16:25:00,50.4,49.0,29.99,ESE,111,4.0,6.0,94,0.00,,,0.00,weatherlink.com 1.10,2013-07-06 01:25:00,
2013-07-05 16:40:00,50.8,49.0,29.99,NE,40,1.0,8.0,94,0.00,,,0.00,weatherlink.com 1.10,2013-07-06 01:40:00,
2013-07-05 16:55:00,50.9,49.0,29.99,NNE,32,1.0,8.0,93,0.00,,,0.00,weatherlink.com 1.10,2013-07-06 01:55:00,
2013-07-05 17:10:00,51.1,49.0,29.98,ENE,65,0.0,7.0,92,0.00,,,0.00,weatherlink.com 1.10,2013-07-06 02:10:00,
2013-07-05 17:25:00,51.1,49.0,29.98,NE,44,4.0,6.0,92,0.00,,,0.00,weatherlink.com 1.10,2013-07-06 02:25:00,
2013-07-05 17:40:00,51.0,49.0,29.98,East,94,1.0,8.0,92,0.00,,,0.00,weatherlink.com 1.10,2013-07-06 02:40:00,
2013-07-05 17:55:00,51.1,49.0,29.97,East,84,4.0,7.0,91,0.00,,,0.00,weatherlink.com 1.10,2013-07-06 02:55:00,
2013-07-05 18:10:00,51.2,48.0,29.97,SE,135,7.0,11.0,90,0.00,,,0.00,weatherlink.com 1.10,2013-07-06 03:10:00,
2013-07-05 18:25:00,51.6,49.0,29.98,NE,50,6.0,8.0,90,0.00,,,0.00,weatherlink.com 1.10,2013-07-06 03:25:00,
2013-07-05 18:40:00,51.8,49.0,29.97,NNE,30,4.0,5.0,89,0.00,,,0.00,weatherlink.com 1.10,2013-07-06 03:40:00,
2013-07-05 18:55:00,51.5,49.0,29.97,NW,325,1.0,6.0,91,0.00,,,0.00,weatherlink.com 1.10,2013-07-06 03:55:00,
2013-07-05 19:10:00,51.3,49.0,29.97,North,355,2.0,6.0,92,0.00,,,0.00,weatherlink.com 1.10,2013-07-06 04:10:00,
2013-07-05 19:25:00,51.3,49.0,29.97,NE,42,4.0,8.0,92,0.00,,,0.00,weatherlink.com 1.10,2013-07-06 04:25:00,
2013-07-05 19:40:00,51.6,49.0,29.97,ENE,68,2.0,5.0,90,0.00,,,0.00,weatherlink.com 1.10,2013-07-06 04:40:00,
2013-07-05 19:55:00,51.4,49.0,29.96,WNW,293,1.0,5.0,91,0.00,,,0.00,weatherlink.com 1.10,2013-07-06 04:55:00,
2013-07-05 20:10:00,50.9,49.0,29.97,South,169,1.0,6.0,92,0.00,,,0.00,weatherlink.com 1.10,2013-07-06 05:10:00,
2013-07-05 20:25:00,50.2,48.0,29.96,WNW,291,4.0,6.0,92,0.00,,,0.00,weatherlink.com 1.10,2013-07-06 05:25:00,
2013-07-05 20:40:00,50.6,49.0,29.97,NNW,344,1.0,5.0,93,0.00,,,0.00,weatherlink.com 1.10,2013-07-06 05:40:00,
2013-07-05 20:55:00,50.7,49.0,29.97,NNE,32,5.0,5.0,93,0.00,,,0.00,weatherlink.com 1.10,2013-07-06 05:55:00,
2013-07-05 21:10:00,50.9,49.0,29.97,East,93,2.0,6.0,92,0.00,,,0.00,weatherlink.com 1.10,2013-07-06 06:10:00,
2013-07-05 21:25:00,51.1,49.0,29.97,ESE,120,3.0,7.0,91,0.00,,,0.00,weatherlink.com 1.10,2013-07-06 06:25:00,
2013-07-05 21:40:00,51.0,49.0,29.97,East,90,1.0,10.0,91,0.00,,,0.00,weatherlink.com 1.10,2013-07-06 06:40:00,
2013-07-05 21:55:00,51.1,49.0,29.98,East,81,3.0,6.0,91,0.00,,,0.00,weatherlink.com 1.10,2013-07-06 06:55:00,
2013-07-05 22:10:00,50.8,48.0,29.98,WNW,294,1.0,7.0,91,0.00,,,0.00,weatherlink.com 1.10,2013-07-06 07:10:00,
2013-07-05 22:25:00,50.9,48.0,29.98,ENE,76,5.0,7.0,91,0.00,,,0.00,weatherlink.com 1.10,2013-07-06 07:25:00,
2013-07-05 22:40:00,51.2,48.0,29.98,East,101,6.0,12.0,90,0.00,,,0.00,weatherlink.com 1.10,2013-07-06 07:40:00,
2013-07-05 22:55:00,51.3,48.0,29.98,East,83,3.0,8.0,89,0.00,,,0.00,weatherlink.com 1.10,2013-07-06 07:55:00,
2013-07-05 23:10:00,51.2,48.0,29.98,NE,44,4.0,9.0,89,0.00,,,0.00,weatherlink.com 1.10,2013-07-06 08:10:00,
2013-07-05 23:25:00,51.0,48.0,29.98,ESE,109,2.0,6.0,89,0.00,,,0.00,weatherlink.com 1.10,2013-07-06 08:25:00,
2013-07-05 23:40:00,50.9,48.0,29.98,SSE,151,3.0,9.0,90,0.00,,,0.00,weatherlink.com 1.10,2013-07-06 08:40:00,
2013-07-05 23:55:00,50.8,48.0,29.98,ENE,67,2.0,8.0,90,0.00,,,0.00,weatherlink.com 1.10,2013-07-06 08:55:00,